This demonstration page uses our WeatherBlox Daily Observations layout. Learn more.

Left ArrowRight Arrow

Hourly Observations for June 1, 2021

Temp ( °F °C ) Dew Point ( °F °C ) Humidity (%) Winds ( mph kmh ) Pressure ( in mb ) Visibility ( mi km ) Precip ( " mm )
12:53 am 00:53 Clear 50 10 44 6.7 80 80 SW 5 7 30.09 1019 10 16 N/A
1:53 am 01:53 Clear 47 8.3 43 6.1 86 86 WSW 3 6 30.10 1019 10 16 N/A
2:53 am 02:53 Clear 47 8.3 43 6.1 86 86 SSW 6 9 30.09 1019 10 16 N/A
3:53 am 03:53 Clear 46 7.8 42 5.6 86 86 SSW 5 7 30.09 1019 10 16 N/A
4:53 am 04:53 Clear 45 7.2 42 5.6 90 90 WSW 6 9 30.10 1019 10 16 N/A
5:53 am 05:53 Sunny 44 6.7 42 5.6 93 93 W 6 9 30.11 1020 10 16 N/A
6:53 am 06:53 Sunny 48 8.9 44 6.7 86 86 W 5 7 30.11 1020 10 16 N/A
7:53 am 07:53 Sunny 56 13.3 47 8.3 72 72 WSW 7 11 30.10 1019 10 16 N/A
8:53 am 08:53 Sunny 63 17.2 49 9.4 60 60 WSW 8 13 30.09 1019 10 16 N/A
9:53 am 09:53 Sunny 69 20.6 47 8.3 45 45 WSW 7 11 30.08 1019 10 16 N/A
10:53 am 10:53 Sunny 72 22.2 47 8.3 41 41 SW 7 11 30.07 1018 10 16 N/A
11:53 am 11:53 Sunny 75 23.9 47 8.3 37 37 W 3 6 30.06 1018 10 16 N/A
12:53 pm 12:53 Sunny 79 26.1 46 7.8 31 31 VRB 5 7 30.04 1017 10 16 N/A
1:53 pm 13:53 Sunny 81 27.2 43 6.1 26 26 VRB 3 6 30.04 1017 10 16 N/A
2:53 pm 14:53 Sunny 81 27.2 43 6.1 26 26 VRB 3 6 30.03 1017 10 16 N/A
3:53 pm 15:53 Sunny 82 27.8 44 6.7 26 26 ESE 6 9 30.01 1016 10 16 N/A
4:53 pm 16:53 Sunny 81 27.2 42 5.6 25 25 VRB 3 6 29.99 1016 10 16 N/A
5:53 pm 17:53 Sunny 83 28.3 42 5.6 24 24 ESE 3 6 29.96 1015 10 16 N/A
6:53 pm 18:53 Sunny 78 25.6 46 7.8 32 32 SE 8 13 29.95 1014 10 16 N/A
7:53 pm 19:53 Sunny 75 23.9 52 11.1 45 45 ESE 7 11 29.93 1014 10 16 N/A
8:53 pm 20:53 Sunny 71 21.7 50 10 47 47 ESE 7 11 29.93 1013 10 16 N/A
9:53 pm 21:53 Clear 64 17.8 48 8.9 56 56 ESE 7 11 29.93 1013 10 16 N/A
10:53 pm 22:53 Clear 65 18.3 47 8.3 52 52 E 5 7 29.91 1013 10 16 N/A
11:53 pm 23:53 Clear 68 20 44 6.7 42 42 undefined N/A 29.90 1013 10 16 N/A

Powered by AerisWeather